Regional Weather Roundup
Issued by NWS Lake Charles, LA

Home | Current Version | Previous Version | Text Only | Print | Product List | Glossary On
Versions: 1 2 3 4 5 6 7 8 9 10 11 12 13 14 15 16 17 18 19 20 21 22 23 24 25 26 27 28 29 30 31 32 33 34 35
000
ASUS44 KLCH 221210
RWRLCH
RWRLCH
REGIONAL WEATHER ROUNDUP
NATIONAL WEATHER SERVICE LAKE CHARLES LA
700 AM CDT WED OCT 22 2014

Note: "fair" indicates few or no clouds below 12,000 feet with no
significant weather and/or obstructions to visibility.


ACROSS SOUTHEAST TEXAS

CITY           SKY/WX    TMP DP  RH WIND       PRES   REMARKS
BEAUMONT       CLEAR     63  60  90 MISG      30.05R
BEAUMONT CITY    N/A     59  58  97 NE5       30.07R
ORANGE         SUNNY    N/A N/A N/A CALM      30.07R HAZE
JASPER         CLEAR     55  55  98 CALM      30.10S FOG
$$

ACROSS CENTRAL LOUISIANA

CITY           SKY/WX    TMP DP  RH WIND       PRES   REMARKS
LEESVILLE      PTCLDY    62  59  90 NE3       30.08R
FULLERTON        N/A     61  57  87 CALM      30.07R FOG
ALEXANDRIA INT CLEAR     58  57  97 CALM      30.08R
ESLER FIELD    PTCLDY    53  52  96 CALM      30.10R FOG
DERIDDER         N/A     59  58  96 CALM      30.10R
OAKDALE        SUNNY     53  51  96 CALM      30.08R FOG
OPELOUSAS        N/A     56  55  99 N3        30.07R
$$

ACROSS SOUTHWEST AND SOUTH CENTRAL LOUISIANA

CITY           SKY/WX    TMP DP  RH WIND       PRES   REMARKS
SULPHUR        SUNNY     62  60  91 N3        30.06S
LAKE CHARLES   CLEAR     59  57  93 NE8       30.06R
CHENNAULT INT  CLEAR     59  57  94 CALM      30.06S
CAMERON PHI      N/A     63  59  88 NE8       30.08R
DEQUINCY         N/A     60  58  92 CALM      30.07R
JENNINGS         N/A     57  56  98 NE3       30.06S
LAFAYETTE      CLEAR     58  57  97 NE3       30.06R
NEW IBERIA     CLEAR     62  58  86 NE8       30.06R
ABBEVILLE        N/A     53  53  99 CALM      30.06S
PATTERSON      CLEAR     59  57  94 CALM      30.07R
SALT POINT       N/A     62  59  90 CALM      30.04R
$$

SELECTED SITES ACROSS THE REGION

CITY           SKY/WX    TMP DP  RH WIND       PRES   REMARKS
HOUSTON BUSH   PTCLDY    63  61  93 CALM      30.06R
HOUSTON HOBBY  PTCLDY    65  62  90 CALM      30.05R
GALVESTON      PTCLDY    71  68  90 NE10      30.04R
COLLEGE STAT   PTCLDY    64  60  87 NE6       30.07R
CONROE         CLEAR     57  56  96 N3        30.08R
HUNTSVILLE     MOCLDY    57  55  93 CALM      30.08R
LUFKIN         CLEAR     59  56  89 CALM      30.09R FOG
SHREVEPORT     CLEAR     59  56  89 CALM      30.11R
MONROE         CLEAR     52  50  93 NE5       30.13R
NATCHEZ MS     CLEAR     50  46  87 NE3       30.11R
BATON ROUGE    CLEAR     58  54  86 NE6       30.07R
N.O. INTL ARPT PTCLDY    67  60  78 NE12      30.04S
SLIDELL        CLEAR     52  50  93 N3        30.06R
$$

MARINE REPORTS

STATION/POSITION TIME  TEMP    WIND        PRES    VSBY  WAVE
                       AIR SEA DIR/SP/G                  HT/PER
                 (UTC) (F)     (DEG/KT/KT) (MB)    (MI)  (FT/S)
BUOY 30 S HIGH I 1200   75 78   70/ 17/ 19 1016.3R         4/ 7
SEA RIM ST PARK  1200   64      50/  6/  7 1018.1R
PORT ARTHUR      1200      76   40/  2/  5 1017.6R
SABINE PASS N    1200   64 76   40/  6/  8 1017.5R
TEXAS POINT      1200   64 73   50/  7/  9 1017.5R
CALCASIEU PASS   1200   63 75   60/  7/  9   N/A
LK CHARLES BEACH 1200   64 77              1017.9R
MARSH ISLAND     NOT AVBL
FRESH WATER LOCK 1200   63 75   10/  4/  6 1017.2R
AMERADA PASS     1200   62 71   30/  2/  4 1017.0R
$$



USA.gov is the U.S. government's official web portal to all federal, state and local government web resources and services.